When you browse on this site, cookies collect data to enhance your experience and personalize the content and advertising you see.
Visit our Privacy Policy to learn more. By continuing to use the site, you agree to this use of cookies and data.
  • en France
  • Liste des pays
  • À 7 jours
  • Température de l'eau
  • Carte météo
  • Widgets météo
  • user-avatar
    Se connecter

    Météo par heure à Canberra

    Ce jour, 22 Août, Jeudi

    Heure Température Précipitation Vent Pression Humidité
    00:00 +6°C° 0 mm 5 m/s 706 mmHg 81%
    01:00 +5°C° 0 mm 6 m/s 706 mmHg 80%
    02:00 +7°C° 0 mm 6 m/s 706 mmHg 77%
    03:00 +7°C° 0 mm 6 m/s 705 mmHg 75%
    04:00 +7°C° 0 mm 6 m/s 705 mmHg 73%
    05:00 +7°C° 0 mm 5 m/s 705 mmHg 73%
    06:00 +7°C° 0 mm 5 m/s 705 mmHg 72%
    07:00 +7°C° 0 mm 5 m/s 706 mmHg 72%
    08:00 +8°C° 0 mm 5 m/s 706 mmHg 62%
    09:00 +9°C° 0 mm 5 m/s 707 mmHg 51%
    10:00 +12°C° 0 mm 5 m/s 708 mmHg 43%
    11:00 +12°C° 0 mm 5 m/s 708 mmHg 40%
    12:00 +13°C° 0 mm 5 m/s 708 mmHg 36%
    13:00 +13°C° 0 mm 4 m/s 708 mmHg 32%
    14:00 +13°C° 0 mm 4 m/s 709 mmHg 35%
    15:00 +12°C° 0 mm 4 m/s 709 mmHg 37%
    16:00 +11°C° 0 mm 4 m/s 710 mmHg 39%
    17:00 +8°C° 0 mm 4 m/s 710 mmHg 46%
    18:00 +7°C° 0 mm 3 m/s 711 mmHg 53%
    19:00 +4°C° 0 mm 3 m/s 711 mmHg 60%
    20:00 +4°C° 0 mm 2 m/s 712 mmHg 64%
    21:00 +3°C° 0 mm 2 m/s 713 mmHg 69%
    22:00 +2°C° 0 mm 2 m/s 713 mmHg 74%
    23:00 +1°C° 0 mm 2 m/s 713 mmHg 78%

    Demain, 23 Août, Vendredi

    Heure Température Précipitation Vent Pression Humidité
    00:00 +2°C° 0 mm 1 m/s 713 mmHg 83%
    01:00 +1°C° 0 mm 1 m/s 713 mmHg 87%
    02:00 +1°C° 0 mm 1 m/s 713 mmHg 86%
    03:00 0°C° 0 mm 1 m/s 713 mmHg 86%
    04:00 0°C° 0 mm 1 m/s 713 mmHg 85%
    05:00 0°C° 0 mm 1 m/s 713 mmHg 82%
    06:00 -1°C° 0 mm 0 m/s 714 mmHg 79%
    07:00 -1°C° 0 mm 0 m/s 714 mmHg 76%
    08:00 +3°C° 0 mm 1 m/s 714 mmHg 65%
    09:00 +6°C° 0 mm 1 m/s 715 mmHg 55%
    10:00 +9°C° 0 mm 2 m/s 715 mmHg 45%
    11:00 +10°C° 0 mm 3 m/s 714 mmHg 44%
    12:00 +11°C° 0 mm 3 m/s 714 mmHg 43%
    13:00 +13°C° 0 mm 4 m/s 714 mmHg 43%
    14:00 +12°C° 0 mm 4 m/s 713 mmHg 46%
    15:00 +12°C° 0 mm 4 m/s 713 mmHg 49%
    16:00 +12°C° 0 mm 4 m/s 712 mmHg 52%
    17:00 +8°C° 0 mm 4 m/s 712 mmHg 61%
    18:00 +7°C° 0 mm 3 m/s 712 mmHg 70%
    19:00 +4°C° 0 mm 3 m/s 712 mmHg 80%
    20:00 +4°C° 0 mm 2 m/s 712 mmHg 82%
    21:00 +3°C° 0 mm 2 m/s 712 mmHg 84%
    22:00 +2°C° 0 mm 2 m/s 712 mmHg 86%
    23:00 +2°C° 0 mm 2 m/s 712 mmHg 86%

    Après-demain, 24 Août, Samedi

    Heure Température Précipitation Vent Pression Humidité
    00:00 +2°C° 0 mm 2 m/s 711 mmHg 85%
    01:00 +1°C° 0 mm 2 m/s 711 mmHg 85%
    02:00 +1°C° 0 mm 2 m/s 711 mmHg 85%
    03:00 +1°C° 0 mm 2 m/s 710 mmHg 85%
    04:00 +1°C° 0 mm 2 m/s 710 mmHg 86%
    05:00 +1°C° 0 mm 2 m/s 710 mmHg 86%
    06:00 +1°C° 0 mm 2 m/s 710 mmHg 87%
    07:00 +1°C° 0 mm 2 m/s 711 mmHg 87%
    08:00 +3°C° 0 mm 3 m/s 711 mmHg 76%
    09:00 +6°C° 0 mm 4 m/s 711 mmHg 64%
    10:00 +9°C° 0 mm 5 m/s 711 mmHg 53%
    11:00 +10°C° 0 mm 6 m/s 710 mmHg 50%
    12:00 +13°C° 0 mm 6 m/s 709 mmHg 47%
    13:00 +14°C° 0 mm 7 m/s 709 mmHg 44%
    14:00 +12°C° 0 mm 7 m/s 708 mmHg 48%
    15:00 +12°C° 0 mm 7 m/s 708 mmHg 51%
    16:00 +11°C° 0 mm 6 m/s 707 mmHg 54%
    17:00 +10°C° 0 mm 5 m/s 708 mmHg 64%
    18:00 +8°C° 0 mm 4 m/s 708 mmHg 74%
    19:00 +7°C° 0 mm 3 m/s 708 mmHg 83%
    20:00 +7°C° 0 mm 3 m/s 708 mmHg 84%
    21:00 +5°C° 0 mm 3 m/s 708 mmHg 84%
    22:00 +5°C° 0 mm 3 m/s 707 mmHg 84%
    23:00 +5°C° 0 mm 3 m/s 707 mmHg 84%

    25 Août, Dimanche

    Heure Température Précipitation Vent Pression Humidité
    00:00 +4°C° 0 mm 3 m/s 707 mmHg 84%
    01:00 +4°C° 0 mm 3 m/s 706 mmHg 84%
    02:00 +4°C° 0 mm 3 m/s 706 mmHg 83%
    03:00 +4°C° 0 mm 3 m/s 706 mmHg 81%
    04:00 +4°C° 0 mm 3 m/s 706 mmHg 80%
    05:00 +4°C° 0 mm 2 m/s 706 mmHg 83%
    06:00 +3°C° 0 mm 2 m/s 707 mmHg 85%
    07:00 +4°C° 0 mm 1 m/s 707 mmHg 88%
    08:00 +5°C° 0 mm 2 m/s 708 mmHg 78%
    09:00 +8°C° 0 mm 3 m/s 709 mmHg 67%
    10:00 +11°C° 0 mm 3 m/s 709 mmHg 57%
    11:00 +11°C° 0 mm 3 m/s 709 mmHg 53%
    12:00 +12°C° 0 mm 3 m/s 709 mmHg 49%
    13:00 +12°C° 0 mm 3 m/s 709 mmHg 44%
    14:00 +12°C° 0 mm 3 m/s 709 mmHg 49%
    15:00 +11°C° 0 mm 3 m/s 709 mmHg 55%
    16:00 +10°C° 0 mm 3 m/s 709 mmHg 60%
    17:00 +9°C° 0 mm 2 m/s 710 mmHg 69%
    18:00 +8°C° 0 mm 1 m/s 710 mmHg 78%
    19:00 +6°C° 0 mm 1 m/s 711 mmHg 88%
    20:00 +6°C° 0 mm 1 m/s 711 mmHg 89%
    21:00 +6°C° 0 mm 1 m/s 711 mmHg 90%
    22:00 +6°C° 0 mm 1 m/s 712 mmHg 91%
    23:00 +5°C° 0.1 mm 1 m/s 712 mmHg 91%

    26 Août, Lundi

    Heure Température Précipitation Vent Pression Humidité
    00:00 +5°C° 0.1 mm 1 m/s 712 mmHg 92%
    01:00 +4°C° 0.1 mm 1 m/s 712 mmHg 93%
    02:00 +4°C° 0 mm 1 m/s 712 mmHg 92%
    03:00 +4°C° 0 mm 1 m/s 712 mmHg 92%
    04:00 +4°C° 0 mm 1 m/s 712 mmHg 91%
    05:00 +4°C° 0 mm 1 m/s 712 mmHg 91%
    06:00 +4°C° 0 mm 1 m/s 713 mmHg 91%
    07:00 +4°C° 0 mm 1 m/s 713 mmHg 91%
    08:00 +5°C° 0 mm 1 m/s 713 mmHg 84%
    09:00 +7°C° 0 mm 1 m/s 713 mmHg 76%
    10:00 +9°C° 0 mm 1 m/s 714 mmHg 68%
    11:00 +10°C° 0 mm 1 m/s 713 mmHg 65%
    12:00 +10°C° 0 mm 1 m/s 713 mmHg 62%
    13:00 +11°C° 0 mm 1 m/s 712 mmHg 58%
    14:00 +11°C° 0 mm 1 m/s 712 mmHg 57%
    15:00 +11°C° 0 mm 1 m/s 712 mmHg 55%
    16:00 +11°C° 0 mm 1 m/s 712 mmHg 53%
    17:00 +9°C° 0 mm 1 m/s 712 mmHg 60%
    18:00 +8°C° 0 mm 1 m/s 713 mmHg 67%
    19:00 +6°C° 0 mm 1 m/s 713 mmHg 74%
    20:00 +6°C° 0 mm 1 m/s 713 mmHg 77%
    21:00 +4°C° 0 mm 2 m/s 713 mmHg 81%
    22:00 +4°C° 0 mm 2 m/s 714 mmHg 84%
    23:00 +4°C° 0 mm 2 m/s 714 mmHg 86%

    27 Août, Mardi

    Heure Température Précipitation Vent Pression Humidité
    00:00 +5°C° 0 mm 1 m/s 713 mmHg 87%
    01:00 +4°C° 0 mm 1 m/s 713 mmHg 88%
    02:00 +4°C° 0 mm 1 m/s 713 mmHg 87%
    03:00 +5°C° 0 mm 1 m/s 713 mmHg 86%
    04:00 +5°C° 0 mm 1 m/s 713 mmHg 85%
    05:00 +5°C° 0 mm 1 m/s 713 mmHg 84%
    06:00 +5°C° 0 mm 1 m/s 713 mmHg 83%
    07:00 +5°C° 0 mm 1 m/s 714 mmHg 82%
    08:00 +7°C° 0 mm 1 m/s 714 mmHg 77%
    09:00 +9°C° 0 mm 1 m/s 714 mmHg 72%
    10:00 +10°C° 0 mm 1 m/s 714 mmHg 67%
    11:00 +11°C° 0.1 mm 1 m/s 713 mmHg 66%
    12:00 +11°C° 0.1 mm 1 m/s 713 mmHg 65%
    13:00 +12°C° 0.1 mm 1 m/s 713 mmHg 64%
    14:00 +12°C° 0.1 mm 1 m/s 712 mmHg 63%
    15:00 +12°C° 0.1 mm 1 m/s 712 mmHg 62%
    16:00 +13°C° 0.1 mm 1 m/s 712 mmHg 61%
    17:00 +11°C° 0.1 mm 1 m/s 712 mmHg 71%
    18:00 +9°C° 0.1 mm 1 m/s 713 mmHg 80%
    19:00 +8°C° 0.1 mm 1 m/s 713 mmHg 89%
    20:00 +7°C° 0.1 mm 1 m/s 713 mmHg 91%
    21:00 +7°C° 0.1 mm 1 m/s 714 mmHg 92%
    22:00 +7°C° 0.1 mm 1 m/s 714 mmHg 94%
    23:00 +7°C° 0 mm 1 m/s 714 mmHg 94%
    Voir plus